Regional Weather Roundup
Issued by NWS

Home | Current Version | Previous Version | Text Only | Print | Product List | Glossary On
Versions: 1 2 3 4 5 6 7 8 9 10 11 12 13 14 15 16 17 18 19 20 21 22 23 24 25 26 27 28 29 30 31 32 33 34 35 36 37 38 39 40 41 42 43 44 45 46 47 48 49 50
000
ASUS46 KPQR 201310
RWROR

OREGON REGIONAL WEATHER ROUNDUP
NATIONAL WEATHER SERVICE PORTLAND OR
500 AM PST SAT DEC 20 2014

NOTE: "FAIR" INDICATES FEW OR NO CLOUDS BELOW 12,000 FEET WITH
NO SIGNIFICANT WEATHER AND/OR OBSTRUCTIONS TO VISIBILITY.

ORZ001>013-201400-
NORTHWEST OREGON


CITY           SKY/WX    TMP DP  RH WIND       PRES   REMARKS
ASTORIA        RAIN      48  45  89 SE9       29.61F FOG
NEWPORT        RAIN      52  52 100 S30G41    29.74F
PORTLAND       RAIN      46  46 100 E15       29.77F
VANCOUVER WA   LGT RAIN  46  42  86 E12       29.77F
SCAPPOOSE      RAIN      47  44  90 SE15      29.74F
HILLSBORO      RAIN      47  46  97 SE13      29.75F
AURORA         LGT RAIN  48  44  86 S12       29.77F
MCMINNVILLE    LGT RAIN  48  45  89 SE16      29.75F
SALEM          LGT RAIN  48  44  86 S17       29.74F
CORVALLIS      CLOUDY    52  46  82 S17G23    29.79F
EUGENE         LGT RAIN  49  45  86 S16       29.81F
$$

ORZ021-028-201400-
SOUTHWEST OREGON


CITY           SKY/WX    TMP DP  RH WIND       PRES   REMARKS
NORTH BEND     CLOUDY    54  52  94 S17G28    29.82F
BROOKINGS      LGT RAIN  52  52 100 S13G22    29.98S FOG
ROSEBURG       LGT RAIN  50  45  83 S6        29.87F
SEXTON SUMMIT  MIX PCPN  37  37 100 S20G32    29.86F VSB 1/4 WCI  27
MEDFORD        CLOUDY    44  43  96 CALM      29.95F FOG
$$

ORZ014>016-041-201400-
COLUMBIA GORGE


CITY           SKY/WX    TMP DP  RH WIND       PRES   REMARKS
TROUTDALE      LGT RAIN  46  42  86 E9        29.79F
THE DALLES     CLOUDY    41  39  93 CALM      29.86F FOG
$$

ORZ029>031-041-044-049-050-061>064-502-503-505>511-201400-
EASTERN OREGON


CITY           SKY/WX    TMP DP  RH WIND       PRES   REMARKS
REDMOND        LGT RAIN  41  36  82 S9        29.83F
BEND           LGT RAIN  37  36  93 SE6       29.84F WCI  33
PRINEVILLE     CLOUDY    41  36  81 S9        29.85F
KLAMATH FALLS  CLOUDY    39  35  86 S6        29.97R WCI  35
LAKEVIEW       CLOUDY    34  30  86 S15G21    29.99F WCI  24
HERMISTON      LGT RAIN  41  38  89 E6        29.86F
PENDLETON      LGT RAIN  41  38  89 E8        29.86F
JOHN DAY       RAIN      38  35  89 E5        29.92F WCI  35
MEACHAM        CLOUDY    35  33  92 CALM      29.87F
LA GRANDE      CLOUDY    41  30  65 S12G18    29.91F
BAKER CITY     NOT AVBL
BURNS          LGT SNOW  33  31  92 S6        29.96F FOG     WCI  28
ROME             N/A     38  34  85 S10       29.99S WCI  31
ONTARIO        CLOUDY    36  34  92 CALM      30.03F FOG
$$



USA.gov is the U.S. government's official web portal to all federal, state and local government web resources and services.